Regional Weather Roundup
Issued by NWS

Home | Current Version | Previous Version | Graphics & Text | Print | Product List | Glossary On
Versions: 1 2 3 4 5 6 7 8 9 10 11 12 13 14 15 16 17 18 19 20 21 22 23 24 25 26 27 28 29 30 31 32 33 34 35 36 37 38 39 40 41 42 43 44 45 46 47 48 49 50
000
ASUS43 KLOT 220806
RWRIL

ILLINOIS REGIONAL WEATHER ROUNDUP
NATIONAL WEATHER SERVICE CHICAGO/ROMEOVILLE IL
300 AM CDT TUE JUL 22 2014

NOTE: "FAIR" INDICATES FEW OR NO CLOUDS BELOW 12,000 FEET WITH NO
SIGNIFICANT WEATHER AND/OR OBSTRUCTIONS TO VISIBILITY.

* THESE STATIONS ARE NOT UNDER NWS QUALITY CONTROL. THEY ALSO MAY NOT
  REPORT WEATHER SUCH AS PRECIPITATION OR FOG.

ILZ001-002-007-009-015-016-024-220900-
NORTHWEST ILLINOIS

CITY           SKY/WX    TMP DP  RH WIND       PRES   REMARKS
MOLINE         CLEAR     74  66  76 S9        30.00F
STERLING*      PTCLDY    72  66  83 S3        30.04S
SAVANNA*       CLEAR     72  68  86 SE7       30.01S
$$

ILZ003-004-008-010-011-017-018-220900-
NORTH CENTRAL ILLINOIS

CITY           SKY/WX    TMP DP  RH WIND       PRES   REMARKS
ROCKFORD       CLEAR     71  65  81 S10       30.04F
FREEPORT*      CLEAR     71  68  90 S8        30.05R
ROCHELLE*      CLEAR     67  64  92 S6        30.04F FOG
DE KALB*       CLEAR     66  64  93 S9        30.06S
PERU*          CLEAR     69  65  86 S8        30.05S
$$

ILZ005-006-012>014-019>023-220900-
NORTHEAST ILLINOIS

CITY           SKY/WX    TMP DP  RH WIND       PRES   REMARKS
CHICAGO-OHARE  CLEAR     72  63  73 S7        30.05S
CHICAGO-MIDWAY CLEAR     73  65  75 S7        30.06R
AURORA         CLEAR     68  64  87 S7        30.06S
LANSING*       CLEAR     65  63  91 S3        30.07S
JOLIET*        CLEAR     65  64  95 CALM      30.07F FOG
WAUKEGAN       CLEAR     68  64  87 S6        30.04F
DUPAGE AIRPORT CLEAR     69  65  86 S7        30.05F
KANKAKEE*      CLEAR     64  63  97 CALM      30.09R FOG
WHEELING       CLEAR     73  65  75 S7        30.06F
MORRIS*        CLEAR     66  66  99 CALM      30.06S
ROMEOVILLE*    CLEAR     66  64  95 S3        30.07S
NORTHERLY ISL    N/A     74  63  68 S7          N/A
$$

LMZ740>746-220900-
SOUTHERN LAKE MICHIGAN

STATION/POSITION SKY/WX   TEMP    WIND        PRES    VSBY  WAVE
                          AIR SEA DIR/SP/G                  HT/PER
                          (F)     (DEG/KT/KT) (MB)    (MI)  (FT/S)
SOUTHERN BUOY              71 69  180/  8/ 10 1017.3F
WAUKEGAN HARBOR            68     200/  8/  9 1018.3S
HARRISON CRIB              73     190/ 12/ 13   N/A
BURNHAM HARBOR             73     180/  4/ 10   N/A
CALUMET HARBOR             72     190/  4/  5 1016.9S
BURNS HARBOR               70     190/  7/  8 1018.6S
MICHIGAN CITY              73     150/ 10/ 13   N/A
$$

ILZ025>027-034>036-040-047-049-050-058-095>099-220900-
WEST-CENTRAL ILLINOIS

CITY           SKY/WX    TMP DP  RH WIND       PRES   REMARKS
QUINCY         CLEAR     72  67  84 S6        30.04S
GALESBURG*     CLEAR     71  67  88 S5        30.04F
MACOMB*        CLEAR     70  67  91 S8        30.05F
JACKSONVILLE*  CLEAR     73  67  82 S8        30.07S
PITTSFIELD*    CLEAR     70  66  86 S5        30.07S
$$

ILZ028>032-037-038-041>044-048-051>054-059>061-220900-
CENTRAL ILLINOIS

CITY           SKY/WX    TMP DP  RH WIND       PRES   REMARKS
PONTIAC        CLEAR     66  64  94 SE5       30.07S FOG
BLOOMINGTON    CLEAR     65  62  90 S6        30.10R
DECATUR        CLEAR     68  63  84 S5        30.08S
PEORIA         CLEAR     71  65  81 S7        30.06S
LACON*         CLEAR     69  64  83 S5        30.04S
LINCOLN*       CLEAR     67  64  90 CALM      30.05S
SPRINGFIELD    CLEAR     70  65  84 S6        30.08R
TAYLORVILLE    CLEAR     63  63 100 CALM      30.08S FOG
$$

ILZ033-039-045-046-055>057-062-063-220900-
EAST-CENTRAL ILLINOIS

CITY           SKY/WX    TMP DP  RH WIND       PRES   REMARKS
CHAMPAIGN      CLEAR     66  63  90 S6        30.09R
RANTOUL*       CLEAR     66  63  89 CALM      30.09S FOG
MATTOON        CLEAR     66  63  90 S5        30.08R
PARIS*           N/A     61  61  98 CALM      30.10R FOG
$$

ILZ079-100>102-220900-
SOUTHWEST ILLINOIS

CITY           SKY/WX    TMP DP  RH WIND       PRES   REMARKS
ALTON          CLEAR     65  65 100 SE3       30.08S
BELLEVILLE     FOG       64  64 100 E2        30.07S VSB 1
CAHOKIA*       CLEAR     67  65  93 CALM      30.07S
SPARTA*        CLEAR     64  63  94 CALM      30.09R FOG
$$

ILZ064>066-069>071-074>076-080>082-084>086-088>090-092>094-220900-
SOUTH-CENTRAL ILLINOIS

CITY           SKY/WX    TMP DP  RH WIND       PRES   REMARKS
CARBONDALE     CLEAR     66  64  93 CALM      30.08R FOG
CAIRO*         CLEAR     68  65  92 CALM      30.07S FOG
MARION         CLEAR     66  66 100 CALM      30.09R FOG
MT. VERNON     CLEAR     63  59  88 CALM      30.09R
CENTRALIA*     CLEAR     62  60  94 CALM      30.08R
SALEM*         CLEAR     65  64  96 CALM      30.09R FOG
METROPOLIS*    CLEAR     64  62  94 CALM      30.07S FOG
$$

ILZ067-068-072-073-078-083-087-091-220900-
SOUTHEAST ILLINOIS

CITY           SKY/WX    TMP DP  RH WIND       PRES   REMARKS
FLORA*           N/A     64  63  94 CALM      30.09R FOG
FAIRFIELD*     CLEAR     64  64 100 CALM      30.08S FOG
HARRISBURG*    CLEAR     64  64 100 CALM      30.08S FOG
ROBINSON*      FOG       64  63  97 CALM      30.09S VSB 1/4
CARMI*         CLEAR     65  65  99 CALM      30.06F FOG
$$

ABBREVIATIONS USED IN REMARKS
   TC - TEMPERATURE IN CELSIUS
  WCI - WIND CHILL INDEX
   HX - HEAT INDEX
  VSB - VISIBILITY
$$




USA.gov is the U.S. government's official web portal to all federal, state and local government web resources and services.